Погода в Тевризе

Погода в Тевризе : погода сейчас, прогноз погоды и архив. Всё, что Вы хотите узнать о погоде в Тевризе!

Хотите узнать прогноз погоды в Тевризе? Тогда Вам сюда: Погода в Тевризе

Поиск расширенной информации на нашем сайте:

Другие новости

Новости СМИ2

Главная страница сайта

Новости сайта

03.07.2017

Напоминаем, что на нашем специализированном сайте Метеоцентр.Азия вы можете получить высокодетализированные автоматические прогнозы погоды по пунктам России, СНГ и мира в авиационном формате (включающие направление и скорость ветра, видимость, явления погоды, количество и форму облачности, нижнюю и верхнюю границу облачности).


Погода в Тевризе - сегодня

Время (UTC), дата Ветер
(°,м/с) 
Видим.   Явления Облачность Т
(°С)
Тd
(°С)
f(%) Тe
(°С)
Pmin
(гПа)
dP
(гПа)
Po
(мм)
O2
(г/м3)
Тmin Tmax R s Состояние
почвы
15 17.02.18 210 (ЮЗ) 10 км    ясно 
-10.8 -12.5 87 -14  1034.3  -0.5  769  324    -6.3       
18 17.02.18 220 (ЮЗ) 10 км    ясно 
-12.4 -13.1 94 -16  1033.3  -1  768  326           
21 17.02.18 210 (ЮЗ) 10 км    10/0 средняя 
[As op]
-12.9 -13.5 95 -15  1032.4  -0.9  768  326           
00 18.02.18 230 (ЮЗ) 10 км    10/0 средняя 
[As op]
-11.5 -12.5 92 -15  1031.1  -1.2  767  324           
03 18.02.18 220 (ЮЗ) 1800 м  снег  10/0 средняя 
[As op]
-11 -12 92 -15  1030.4  -0.8  766  323  -13.5    0.2  33  равномерный
сухой снег
100% 
06 18.02.18 250 (З) н/о    н/о 
-9.3 -10.7 90 -13  1030.3  766  321           
09 18.02.18 290 (З) 20000 м    3/1 600 м средняя 
[Cu hum|Ac trans]
-5.3 -8.9 76 -7  1030  0.1  766  316           
12 18.02.18 250 (З) н/о    н/о 
-5.7 -9.1 77 -8  1029.8  -0.2  766  316           
15 18.02.18 240 (ЮЗ) 10 км    9/0 средняя 
[Ac trans]
-7 -9.7 81 -10  1030.3  0.4  766  318    -4.7  0.2     
18 18.02.18 250 (З) 10 км    9/0 средняя 
[Ac As]
-7.8 -9.7 86 -11  1029.9  -0.4  766  319           
21 18.02.18 250 (З) 10 км    10/0 средняя 
[Ac und]
-7.3 -9.4 85 -10  1029.9  766  318           
00 19.02.18 240 (ЮЗ) 10 км    ясно 
-8.5 -10.6 85 -11  1030.1  0.2  766  320           
03 19.02.18 240 (ЮЗ) 20000 м    10/0 средняя 
[As trans]
-9.2 -10.9 87 -13  1030.4  0.3  766  321  -9.9      33  равномерный
сухой снег
100% 
06 19.02.18 240 (ЮЗ) н/о    н/о 
-7.6 -10.8 78 -11  1030.2  -0.2  766  319           
09 19.02.18 250 (З) 20000 м    10/0 верхняя 
[Cs]
-4.2 -9.4 67 -7  1029.9  -0.2  766  314           
12 19.02.18 230 (ЮЗ) н/о    н/о 
-4.1 -10.2 62 -6  1030.4  0.5  766  315           
15 19.02.18 220 (ЮЗ) 10 км    ясно 
-6.9 -11.4 70 -10  1030.8  0.3  767  318    -3.3       
18 19.02.18 240 (ЮЗ) 10 км    4/0 верхняя 
[Ci fib]
-8.9 -12.6 74 -12  1030.6  -0.3  766  320           
21 19.02.18 220 (ЮЗ) 10 км    ясно 
-9.8 -13.5 74 -13  1030.2  -0.4  766  321           
00 20.02.18 200 (Ю) 10 км    ясно 
-11.8 -14.6 80 -14  1029.8  -0.5  766  324           
03 20.02.18 220 (ЮЗ) 20000 м    10/0 верхняя 
[Cs]
-12.4 -14.7 83 -17  1029  -0.8  765  324  -12.4      33  равномерный
сухой снег
100% 
06 20.02.18 210 (ЮЗ) н/о    н/о 
-9.8 -13.8 73 -13  1028.2  -0.3  765  321           
09 20.02.18 200 (Ю) 20000 м    10/0 верхняя 
[Cs]
-5.8 -12.2 61 -10  1027.3  -0.7  764  316           
12 20.02.18 200 (Ю) н/о    н/о 
-6.8 -12.2 65 -9  1026.5  -0.9  763  317           
15 20.02.18 190 (Ю) 10 км    10/0 верхняя 
[Cs]
-8.3 -12.9 69 -11  1025.7  -0.8  763  318    -5.7       
Время (UTC), дата Ветер
(°,м/с) 
Видим.   Явления Облачность Т
(°С)
Тd
(°С)
f(%) Тe
(°С)
Pmin
(гПа)
dP
(гПа)
Po
(мм)
O2
(г/м3)
Тmin Tmax R s Состояние
почвы

Для получения пояснительной информации подведите курсор к названию столбца.

ПОГОДА в Тевризе - архив

Всё, что Вы хотите узнать о погоде в Тевризе - удобно и подробно!

Выберите нужную дату (начиная с 1 января 2015* года) и нажмите кнопку "Найти".
Будут отображены архивные сводки погоды по пункту Тевриз, начиная с указанной даты.


Отображать данные в формате CSV (для использования в таблицах Excel)


Внимание! Наш архив погоды предназначен исключительно для личного некоммерческого использования в познавательных целях. Если Вам необходимы официальные справки о состоянии погоды (для производственных, юридических, коммерческих и т.п. целей), обращайтесь в органы Росгидромета.

*Примечание: данная дата относится к архиву по метеостанциям СССР (Россия, СНГ, Балтия).
Архив по метеостанциям Зарубежной Европы и Азии (кроме Китая) хранится 10 дней, по другим регионам земного шара (Китай, Африка, Америка, Австралия, Океания) - 1 день.

Тевриз - район местоположения метеостанции


Название, широта, долгота, высота метеостанции:
Тевриз 57.5°ш. 72.4°д. 67 м над ур. моря [Российская Федерация]

Дополнительная информация

В oтличие oт бoльшинства пoгoдных сайтoв мы публикуем пoдрoбную метеoинфoрмацию в детальнoм прoфессиoнальнoм фoрмате.

Характеристики температуры и влажнoсти вoздуха измеряются на высoте 2 м в тени вдали oт зданий и деревьев.
Скoрoсть ветра измеряется на высoте 10 м (на урoвне рoста челoвека скoрoсть ветра ниже в 1.5-2 раза). Если метеoстанция нахoдится в гoрoде или в лесу, тo скoрoсть ветра занижена на 2-4 м/с пo сравнению с oткрытым местoм. Скoрoсть ветра над акватoриями крупных рек и oзёр, а также на вершинах хoлмoв на 2-5 м/с выше, чем в oбычных услoвиях.
Атмoсфернoе давление в разных тoчках местнoсти мoжет значительнo oтличаться oт давления на метеoстанции, в зависимoсти oт услoвий рельефа (при пoдъёме на 10 м давление пoнижается примернo на 1 мм рт.ст.).